[[{"header":{"parameterUnit":"m.s-1","parameterCategory":1,"la1":30.2991,"la2":30.254,"lo1":-89.0895,"lo2":-89.0444,"dy":0.0017,"dx":0.0017,"nx":28,"ny":28,"refTime":"2025-09-06T21:00:00:Z","depth":0,"parameterNumber":2,"parameterNumberName":"U-component_of_WINDS"},"data":[0,0,0,0,0,0,0,0,0,0,0,0,0,0,0,0,0,0,0,0,0,0,0,0,0,0,0,0,0,0,0,0,0,0,0,0,0,0,0,0,0,0,0,0,0,0,0,0,0,0,0,0,0,0,0,0,0,0,-1.43,-1.4301,0,-1.4387,-1.4388,-1.4389,-1.4363,-1.4361,-1.4359,-1.4358,-1.4448,-1.4452,-1.4456,0,0,0,0,0,0,0,0,0,0,0,0,0,-1.4109,-1.4113,-1.43,-1.4301,-1.4302,-1.4387,-1.4389,-1.439,-1.4363,-1.4361,-1.4359,-1.4357,-1.4446,-1.4451,-1.4456,0,0,0,0,0,0,0,0,0,0,0,0,0,-1.4194,-1.4114,-1.43,-1.4299,-1.43,-1.4387,-1.4389,-1.439,-1.4364,-1.4361,-1.4358,-1.4356,-1.4445,-1.4451,-1.4457,-1.455,0,0,-1.4476,-1.4478,0,0,0,0,0,0,0,0,-1.4189,-1.4201,-1.4298,-1.4299,-1.43,-1.4361,-1.4354,-1.4444,-1.4364,-1.434,-1.4357,-1.4354,-1.4421,-1.4429,-1.4452,-1.4554,-1.4558,-1.4476,-1.448,-1.4483,-1.4484,0,0,0,0,0,0,0,-1.4183,-1.4197,-1.4334,-1.4299,-1.4301,-1.4294,-1.4303,-1.4371,-1.4395,-1.4341,-1.434,-1.435,-1.4421,-1.4446,-1.4454,-1.456,-1.4476,-1.4482,-1.4485,-1.4488,-1.4743,-1.4746,0,0,0,0,0,0,-1.4177,-1.4192,-1.4332,-1.4337,-1.4237,-1.43,-1.431,-1.4345,-1.4394,-1.4399,-1.4353,-1.4349,-1.4437,-1.4447,-1.4457,-1.457,-1.4483,-1.4488,-1.4492,-1.474,-1.4744,-1.4747,0,0,0,0,0,0,-1.4173,-1.4189,-1.4328,-1.4264,-1.4281,-1.4306,-1.4345,-1.4348,-1.4372,-1.4402,-1.4407,-1.4374,-1.4435,-1.4448,-1.4527,-1.4573,-1.4491,-1.4497,-1.4736,-1.4741,-1.4745,-1.4797,0,0,0,0,0,0,-1.4167,-1.4188,-1.4224,-1.4265,-1.4285,-1.4397,-1.4348,-1.4351,-1.4383,-1.4379,-1.4423,-1.4428,-1.4434,-1.4518,-1.4533,-1.458,-1.4502,-1.4733,-1.4739,-1.4744,-1.4791,-1.4802,-1.4812,0,0,0,0,0,-1.4161,-1.4235,-1.4226,-1.4243,-1.433,-1.44,-1.4411,-1.4417,-1.4387,-1.4423,-1.4442,-1.4426,-1.4565,-1.4526,-1.4543,-1.4592,-1.473,-1.4737,-1.4744,-1.4786,-1.48,-1.4812,0,0,0,0,0,0,-1.4199,-1.424,-1.4231,-1.4321,-1.4357,-1.4395,-1.4442,-1.4431,-1.4477,-1.4471,-1.4476,-1.4486,-1.4567,-1.4587,-1.4544,-1.4685,-1.4643,-1.4653,-1.4669,-1.4683,-1.4693,-1.4688,-1.4507,0,0,0,0,0,-1.4217,-1.427,-1.4304,-1.438,-1.4399,-1.4417,-1.4447,-1.4448,-1.4486,-1.4502,-1.4527,-1.4564,-1.4616,-1.465,-1.4699,-1.4793,-1.4803,-1.4835,-1.4845,-1.4854,-1.4864,-1.4915,-1.493,-1.477,-1.477,-1.477,0,0,-1.4257,-1.4286,-1.432,-1.4388,-1.4417,-1.4472,-1.443,-1.449,-1.4531,-1.4511,-1.4587,-1.4607,-1.4649,-1.4736,-1.4775,-1.4755,-1.491,-1.4863,-1.4869,-1.4875,-1.4924,-1.4939,-1.4952,-1.4775,-1.4774,-1.4773,0,0,-1.4357,-1.4384,-1.4451,-1.448,-1.4523,-1.4535,-1.4551,-1.4591,-1.4603,-1.468,-1.4665,-1.4714,-1.4803,-1.4834,-1.4861,-1.4972,-1.4959,-1.4988,-1.5044,-1.5094,-1.5106,-1.5118,-1.5159,-1.5173,-1.4997,-1.4997,-1.4997,0,-1.4401,-1.4484,-1.4487,-1.4548,-1.4579,-1.4562,-1.463,-1.4658,-1.4715,-1.4737,-1.4713,-1.4824,-1.4851,-1.4945,-1.4972,-1.4995,-1.5013,-1.4984,-1.5104,-1.5116,-1.5126,-1.5165,-1.518,-1.5,-1.5,-1.4999,-1.4999,0,-1.4536,-1.4594,-1.4642,-1.4698,-1.4734,-1.4798,-1.4811,-1.4847,-1.4844,-1.4858,-1.4936,-1.4967,-1.5023,-1.5045,-1.5043,-1.5139,-1.5125,-1.5103,-1.5061,-1.5145,-1.5182,-1.5196,-1.5005,-1.5004,-1.5003,-1.5002,0,0,-1.4666,-1.4721,-1.4739,-1.4764,-1.481,-1.4854,-1.4917,-1.4972,-1.5003,-1.5042,-1.5096,-1.5171,-1.515,-1.5181,-1.5182,-1.5226,-1.5313,-1.5198,-1.5199,-1.522,-1.5422,-1.544,-1.5457,-1.5304,-1.5307,-1.5309,-1.5419,0,-1.4771,-1.4883,-1.4887,-1.4989,-1.5042,-1.5026,-1.5081,-1.5115,-1.5129,-1.5176,-1.5192,-1.5246,-1.5214,-1.5232,-1.5275,-1.5294,-1.5354,-1.5285,-1.5355,-1.5357,-1.5347,-1.5476,-1.5496,-1.5598,-1.5433,-1.5435,-1.5437,0,-1.491,-1.4954,-1.5061,-1.5099,-1.5122,-1.5171,-1.5221,-1.5266,-1.5304,-1.5312,-1.5346,-1.534,-1.5404,-1.5358,-1.5448,-1.5401,-1.5429,-1.5442,-1.5446,-1.5455,-1.5404,-1.549,-1.5631,-1.5647,-1.546,-1.5458,-1.5456,0,-1.4996,-1.5081,-1.5157,-1.5178,-1.5224,-1.5259,-1.528,-1.5315,-1.5347,-1.5391,-1.5412,-1.5462,-1.549,-1.5529,-1.5536,-1.5502,-1.5626,-1.5581,-1.5635,-1.5635,-1.5664,-1.5662,-1.5813,-1.5678,-1.5678,-1.5678,-1.5678,0,-1.5115,-1.5181,-1.5196,-1.5242,-1.5316,-1.5319,-1.5393,-1.5411,-1.5442,-1.5492,-1.548,-1.5527,-1.5533,-1.5582,-1.5588,-1.5662,-1.5674,-1.5682,-1.5683,-1.5684,-1.5684,-1.5705,-1.5698,-1.5682,-1.5681,-1.568,-1.568,0,-1.5224,-1.5236,-1.5317,-1.5353,-1.5364,-1.5417,-1.5448,-1.5493,-1.5505,-1.5568,-1.5583,-1.5603,-1.5659,-1.567,-1.5737,-1.5741,-1.5829,-1.5822,-1.5817,-1.5817,-1.5871,-1.5866,-1.6042,-1.6065,-1.5914,-1.5915,-1.5916,0,-1.53,-1.5351,-1.5392,-1.5425,-1.5447,-1.55,-1.5533,-1.5537,-1.5572,-1.5618,-1.5657,-1.5712,-1.5757,-1.5848,-1.5868,-1.5919,-1.5914,-1.5972,-1.5922,-1.5921,-1.5917,-1.5915,-1.592,-1.5983,-1.5984,-1.5986,-1.5987,0,-1.5434,-1.5438,-1.5485,-1.5535,-1.5575,-1.5614,-1.5652,-1.5679,-1.5688,-1.5727,-1.5785,-1.582,-1.5887,-1.5943,-1.5993,-1.6014,-1.6003,-1.6002,-1.6017,-1.602,-1.6016,-1.602,-1.5845,-1.5998,-1.5997,-1.5996,-1.5996,-1.5995,-1.5531,-1.5575,-1.5612,-1.5665,-1.5694,-1.5729,-1.5773,-1.579,-1.5838,-1.5894,-1.5893,-1.5956,-1.5992,-1.6059,-1.6083,-1.6132,-1.6114,-1.6136,-1.6142,-1.6148,-1.6154,-1.6006,-1.6141,-1.6141,-1.6141,-1.614,-1.614,0,-1.5666,-1.5688,-1.5737,-1.579,-1.5832,-1.5816,-1.5856,-1.5893,-1.5949,-1.5983,-1.6027,-1.6093,-1.6146,-1.617,-1.6222,-1.6257,-1.6253,-1.6271,-1.627,-1.6275,-1.6167,-1.6149,-1.6273,-1.6273,-1.6273,-1.6273,-1.6273,-1.6273,-1.5742,-1.5817,-1.5824,-1.5913,-1.5934,-1.5997,-1.6021,-1.6053,-1.6081,-1.6155,-1.6199,-1.6214,-1.6244,-1.6299,-1.6347,-1.6352,-1.6373,-1.6393,-1.6397,-1.6296,-1.6282,-1.627,-1.6253,-1.6397,-1.6398,-1.6501,-1.6502,-1.6503]},{"header":{"parameterUnit":"m.s-1","parameterCategory":1,"la1":30.2991,"la2":30.254,"lo1":-89.0895,"lo2":-89.0444,"dy":0.0017,"dx":0.0017,"nx":28,"ny":28,"refTime":"2025-09-06T21:00:00:Z","depth":0,"parameterNumber":3,"parameterNumberName":"V-component_of_WINDS"},"data":[0,0,0,0,0,0,0,0,0,0,0,0,0,0,0,0,0,0,0,0,0,0,0,0,0,0,0,0,0,0,0,0,0,0,0,0,0,0,0,0,0,0,0,0,0,0,0,0,0,0,0,0,0,0,0,0,0,0,-6.2,-6.2001,0,-6.2075,-6.2076,-6.2077,-6.2003,-6.2,-6.1997,-6.1994,-6.2066,-6.207,-6.2075,0,0,0,0,0,0,0,0,0,0,0,0,0,-6.1785,-6.1789,-6.2,-6.2001,-6.2002,-6.2075,-6.2076,-6.2077,-6.2003,-6.2,-6.1996,-6.1993,-6.2064,-6.2069,-6.2075,0,0,0,0,0,0,0,0,0,0,0,0,0,-6.1871,-6.1791,-6.2,-6.1974,-6.1972,-6.2075,-6.2076,-6.2077,-6.2004,-6.2,-6.1995,-6.1991,-6.2062,-6.2069,-6.2076,-6.2206,0,0,-6.2097,-6.21,0,0,0,0,0,0,0,0,-6.1866,-6.1879,-6.1977,-6.1976,-6.1974,-6.2025,-6.2026,-6.212,-6.2005,-6.1992,-6.1994,-6.1989,-6.2055,-6.2062,-6.2086,-6.2209,-6.2212,-6.2097,-6.2102,-6.2105,-6.2107,0,0,0,0,0,0,0,-6.186,-6.1875,-6.2029,-6.1978,-6.1977,-6.1956,-6.1964,-6.2044,-6.2047,-6.1993,-6.1988,-6.1998,-6.2054,-6.208,-6.2087,-6.2213,-6.2097,-6.2103,-6.2108,-6.211,-6.2445,-6.2449,0,0,0,0,0,0,-6.1858,-6.1871,-6.2027,-6.2032,-6.1909,-6.1964,-6.1972,-6.2013,-6.2046,-6.2047,-6.2001,-6.1994,-6.207,-6.2079,-6.2089,-6.2243,-6.2105,-6.2111,-6.2115,-6.244,-6.2446,-6.2451,0,0,0,0,0,0,-6.1854,-6.1873,-6.2024,-6.195,-6.1968,-6.1972,-6.2019,-6.2017,-6.2043,-6.2053,-6.2052,-6.2028,-6.2067,-6.208,-6.2177,-6.2244,-6.2114,-6.212,-6.2434,-6.2442,-6.2448,-6.2551,0,0,0,0,0,0,-6.1848,-6.1872,-6.1923,-6.1952,-6.1972,-6.2113,-6.2023,-6.2022,-6.2056,-6.2047,-6.2077,-6.2078,-6.2064,-6.2167,-6.2184,-6.2251,-6.2126,-6.2428,-6.2438,-6.2446,-6.2542,-6.2561,-6.2577,0,0,0,0,0,-6.1841,-6.1948,-6.1926,-6.1945,-6.2036,-6.2117,-6.2128,-6.2112,-6.2061,-6.2111,-6.2118,-6.2077,-6.2234,-6.2178,-6.2196,-6.2267,-6.2424,-6.2435,-6.2445,-6.2534,-6.2557,-6.2577,0,0,0,0,0,0,-6.1924,-6.1951,-6.1927,-6.2047,-6.2081,-6.2104,-6.2167,-6.2138,-6.2185,-6.2174,-6.215,-6.2158,-6.2261,-6.2273,-6.221,-6.2393,-6.2321,-6.2335,-6.2382,-6.2404,-6.2421,-6.2416,-6.2132,0,0,0,0,0,-6.1957,-6.2023,-6.2042,-6.2146,-6.2164,-6.2163,-6.2198,-6.2183,-6.2215,-6.2229,-6.2242,-6.2274,-6.233,-6.2367,-6.242,-6.2543,-6.2548,-6.26,-6.2618,-6.2633,-6.2645,-6.271,-6.2733,-6.2486,-6.2486,-6.2486,0,0,-6.2025,-6.2048,-6.209,-6.2163,-6.2187,-6.2254,-6.2175,-6.2249,-6.2297,-6.2239,-6.2333,-6.2343,-6.2377,-6.2488,-6.2537,-6.2501,-6.2715,-6.2646,-6.2658,-6.2663,-6.2723,-6.2747,-6.2768,-6.2493,-6.2492,-6.2491,0,0,-6.2182,-6.2207,-6.2296,-6.2322,-6.236,-6.2359,-6.238,-6.2409,-6.2415,-6.2508,-6.2466,-6.2522,-6.262,-6.2645,-6.2671,-6.2838,-6.2802,-6.2855,-6.2948,-6.3011,-6.3031,-6.3048,-6.3106,-6.3127,-6.2868,-6.2869,-6.2869,0,-6.2261,-6.2362,-6.2345,-6.2422,-6.2454,-6.2407,-6.2495,-6.2521,-6.2573,-6.2596,-6.2555,-6.2677,-6.2696,-6.2812,-6.2853,-6.2876,-6.2898,-6.2852,-6.303,-6.3047,-6.3062,-6.3118,-6.314,-6.2875,-6.2874,-6.2873,-6.2873,0,-6.2456,-6.2526,-6.2593,-6.2647,-6.2687,-6.277,-6.2763,-6.2805,-6.2786,-6.2789,-6.2884,-6.2906,-6.2961,-6.2988,-6.2969,-6.3101,-6.3077,-6.3034,-6.296,-6.3092,-6.3144,-6.3165,-6.2884,-6.2882,-6.288,-6.2878,0,0,-6.2668,-6.2712,-6.2737,-6.2761,-6.2799,-6.2852,-6.2931,-6.2988,-6.3024,-6.3061,-6.3126,-6.321,-6.317,-6.3199,-6.3183,-6.3239,-6.3368,-6.3188,-6.3189,-6.322,-6.3513,-6.3545,-6.357,-6.3345,-6.3349,-6.3352,-6.3509,0,-6.2825,-6.2966,-6.2953,-6.3085,-6.3148,-6.3104,-6.3173,-6.3203,-6.3207,-6.3259,-6.3263,-6.3323,-6.3266,-6.3283,-6.3336,-6.3342,-6.3427,-6.333,-6.3403,-6.3406,-6.3395,-6.3597,-6.3631,-6.3779,-6.353,-6.3533,-6.3536,0,-6.3028,-6.3076,-6.3215,-6.3243,-6.3269,-6.3332,-6.3382,-6.3434,-6.3466,-6.3465,-6.3498,-6.3472,-6.3549,-6.3475,-6.358,-6.3515,-6.3544,-6.3551,-6.3556,-6.3561,-6.3478,-6.3607,-6.3825,-6.3847,-6.3567,-6.3565,-6.3562,0,-6.3168,-6.3266,-6.3362,-6.3383,-6.3419,-6.3464,-6.348,-6.3509,-6.3543,-6.3586,-6.3608,-6.3659,-6.3686,-6.3725,-6.3713,-6.366,-6.3821,-6.3745,-6.382,-6.3821,-6.3855,-6.3853,-6.4081,-6.3876,-6.3875,-6.3875,-6.3874,0,-6.3345,-6.3432,-6.3425,-6.3484,-6.3579,-6.3562,-6.3656,-6.3666,-6.3691,-6.375,-6.3713,-6.3768,-6.375,-6.3803,-6.3794,-6.3882,-6.3894,-6.3894,-6.389,-6.3897,-6.3897,-6.3915,-6.3904,-6.3881,-6.3879,-6.3878,-6.3877,0,-6.3517,-6.3516,-6.3617,-6.3644,-6.3652,-6.3721,-6.3742,-6.3796,-6.3797,-6.3872,-6.3888,-6.3889,-6.395,-6.3942,-6.401,-6.4003,-6.4112,-6.4096,-6.4102,-6.4098,-6.4173,-6.4166,-6.442,-6.4452,-6.4227,-6.4229,-6.4231,0,-6.363,-6.3696,-6.373,-6.3767,-6.3788,-6.3848,-6.3884,-6.3869,-6.3907,-6.3948,-6.3997,-6.4055,-6.4101,-6.42,-6.4205,-6.4256,-6.4241,-6.4326,-6.4248,-6.4253,-6.4241,-6.4237,-6.4243,-6.4342,-6.4344,-6.4346,-6.4348,0,-6.383,-6.3826,-6.388,-6.3934,-6.3978,-6.4019,-6.4056,-6.4088,-6.4076,-6.412,-6.4183,-6.4219,-6.4289,-6.4346,-6.4394,-6.4408,-6.4376,-6.4373,-6.4392,-6.4399,-6.44,-6.44,-6.4143,-6.4367,-6.4365,-6.4363,-6.4362,-6.4362,-6.3975,-6.4031,-6.4064,-6.4125,-6.4151,-6.4187,-6.4239,-6.4248,-6.4301,-6.4357,-6.4345,-6.4415,-6.4444,-6.4506,-6.4525,-6.4579,-6.4547,-6.4576,-6.4583,-6.459,-6.4599,-6.4392,-6.4587,-6.4587,-6.4586,-6.4586,-6.4585,0,-6.4173,-6.4192,-6.4248,-6.4302,-6.4349,-6.4317,-6.4356,-6.4397,-6.446,-6.4491,-6.4537,-6.4609,-6.4664,-6.4674,-6.4727,-6.4767,-6.4754,-6.4781,-6.4778,-6.4781,-6.4625,-6.4602,-6.4792,-6.4791,-6.4791,-6.4791,-6.4791,-6.4791,-6.4281,-6.4374,-6.4374,-6.448,-6.4497,-6.4568,-6.4593,-6.4624,-6.4649,-6.4731,-6.4778,-6.4785,-6.4807,-6.486,-6.4909,-6.491,-6.4931,-6.4964,-6.496,-6.4813,-6.4792,-6.4773,-6.4751,-6.4969,-6.4969,-6.5112,-6.5113,-6.5114]}]]